Precipitable_Water
0.13 0.13 0.13 0.13 0.14 0.14 0.16 0.19 0.20 0.19 0.19 0.19 0.20 0.21 0.20 0.19 0.16 0.14 0.14 0.15 0.16 0.16 0.19 0.16 0.20 0.31 0.32 0.29 0.30 0.31 0.34 0.37 0.40 0.41 0.41 0.41 0.41 0.42 0.44 0.52 0.62 0.67 0.69 0.66 0.66 0.66 0.65 0.60 0.55 0.56 0.63 0.69 0.72 0.76 0.82 0.88 0.89 0.92 0.95 0.98 1.00 1.01 0.99 1.00 0.99 0.99 0.94 0.86 0.81 0.78 0.76 0.74 0.72 0.72
0.13 0.13 0.14 0.14 0.14 0.15 0.15 0.17 0.18 0.18 0.17 0.18 0.19 0.20 0.21 0.21 0.19 0.18 0.16 0.16 0.19 0.20 0.23 0.23 0.20 0.28 0.32 0.33 0.32 0.32 0.31 0.36 0.38 0.40 0.40 0.39 0.40 0.41 0.43 0.46 0.56 0.65 0.69 0.69 0.67 0.67 0.67 0.65 0.59 0.56 0.58 0.63 0.67 0.72 0.76 0.81 0.85 0.85 0.86 0.89 0.96 0.98 0.97 0.97 0.96 0.98 0.95 0.91 0.87 0.84 0.81 0.78 0.75 0.74
0.13 0.14 0.13 0.14 0.14 0.15 0.15 0.15 0.16 0.17 0.17 0.18 0.19 0.20 0.20 0.20 0.22 0.21 0.20 0.18 0.20 0.24 0.22 0.23 0.26 0.26 0.33 0.33 0.32 0.32 0.34 0.37 0.35 0.37 0.38 0.39 0.40 0.41 0.42 0.44 0.48 0.59 0.67 0.70 0.69 0.68 0.67 0.66 0.63 0.58 0.56 0.56 0.58 0.64 0.70 0.74 0.78 0.82 0.83 0.86 0.88 0.94 0.94 0.94 0.96 0.96 0.94 0.92 0.89 0.85 0.83 0.81 0.80 0.78
0.14 0.14 0.14 0.14 0.15 0.15 0.16 0.16 0.16 0.17 0.17 0.17 0.18 0.19 0.19 0.20 0.21 0.21 0.20 0.19 0.18 0.22 0.25 0.25 0.26 0.29 0.32 0.37 0.35 0.32 0.31 0.32 0.31 0.33 0.36 0.38 0.40 0.42 0.42 0.42 0.44 0.50 0.63 0.69 0.70 0.70 0.69 0.67 0.64 0.59 0.55 0.53 0.52 0.54 0.62 0.67 0.71 0.76 0.77 0.77 0.79 0.84 0.89 0.90 0.91 0.93 0.94 0.93 0.90 0.89 0.86 0.83 0.80 0.78
0.15 0.15 0.15 0.15 0.16 0.17 0.16 0.16 0.16 0.16 0.17 0.18 0.18 0.18 0.19 0.20 0.20 0.20 0.20 0.19 0.18 0.20 0.24 0.25 0.24 0.25 0.28 0.31 0.37 0.38 0.36 0.34 0.32 0.32 0.34 0.37 0.40 0.41 0.41 0.41 0.42 0.44 0.54 0.65 0.68 0.70 0.69 0.68 0.65 0.60 0.54 0.52 0.50 0.48 0.51 0.56 0.61 0.66 0.70 0.70 0.71 0.76 0.79 0.86 0.88 0.89 0.89 0.88 0.89 0.89 0.87 0.84 0.82 0.81
0.15 0.15 0.15 0.16 0.16 0.17 0.17 0.17 0.17 0.17 0.19 0.19 0.19 0.20 0.20 0.19 0.20 0.21 0.20 0.18 0.19 0.18 0.21 0.22 0.24 0.23 0.26 0.26 0.31 0.34 0.37 0.36 0.35 0.31 0.32 0.35 0.39 0.41 0.42 0.42 0.41 0.42 0.46 0.57 0.65 0.69 0.69 0.69 0.68 0.61 0.55 0.52 0.51 0.47 0.44 0.45 0.50 0.55 0.61 0.65 0.67 0.69 0.71 0.75 0.80 0.84 0.85 0.84 0.85 0.88 0.88 0.86 0.84 0.82
0.16 0.16 0.17 0.18 0.18 0.19 0.19 0.19 0.20 0.20 0.19 0.20 0.19 0.19 0.20 0.20 0.21 0.22 0.21 0.19 0.18 0.21 0.20 0.21 0.20 0.22 0.25 0.27 0.28 0.32 0.38 0.39 0.37 0.33 0.31 0.32 0.35 0.39 0.41 0.43 0.43 0.42 0.43 0.49 0.60 0.65 0.68 0.69 0.69 0.66 0.59 0.55 0.54 0.52 0.49 0.44 0.44 0.47 0.52 0.56 0.61 0.63 0.66 0.69 0.71 0.74 0.78 0.81 0.82 0.83 0.87 0.87 0.86 0.84
0.17 0.17 0.17 0.18 0.19 0.19 0.19 0.20 0.21 0.22 0.22 0.22 0.21 0.20 0.20 0.22 0.23 0.23 0.22 0.21 0.21 0.22 0.20 0.19 0.19 0.21 0.22 0.24 0.30 0.33 0.36 0.37 0.36 0.34 0.34 0.33 0.33 0.37 0.41 0.43 0.44 0.45 0.44 0.45 0.51 0.62 0.65 0.67 0.68 0.68 0.63 0.59 0.58 0.58 0.56 0.53 0.49 0.46 0.49 0.53 0.54 0.57 0.60 0.63 0.66 0.69 0.71 0.73 0.78 0.81 0.83 0.86 0.87 0.86
0.17 0.17 0.17 0.18 0.18 0.19 0.19 0.20 0.21 0.22 0.23 0.23 0.23 0.24 0.25 0.25 0.24 0.23 0.22 0.23 0.25 0.23 0.20 0.18 0.19 0.21 0.23 0.26 0.30 0.32 0.32 0.33 0.33 0.34 0.33 0.34 0.34 0.36 0.40 0.42 0.44 0.46 0.46 0.46 0.49 0.55 0.63 0.65 0.67 0.67 0.65 0.61 0.59 0.60 0.62 0.62 0.59 0.53 0.51 0.52 0.53 0.55 0.56 0.56 0.58 0.61 0.65 0.68 0.71 0.76 0.80 0.82 0.85 0.86
0.17 0.17 0.18 0.18 0.19 0.19 0.20 0.20 0.21 0.23 0.23 0.24 0.24 0.25 0.26 0.24 0.24 0.23 0.23 0.25 0.25 0.26 0.24 0.21 0.18 0.21 0.23 0.26 0.27 0.29 0.32 0.31 0.31 0.31 0.32 0.33 0.35 0.35 0.36 0.40 0.43 0.45 0.46 0.46 0.47 0.51 0.58 0.64 0.64 0.66 0.66 0.63 0.61 0.62 0.64 0.65 0.65 0.62 0.58 0.55 0.54 0.55 0.55 0.55 0.55 0.56 0.58 0.61 0.65 0.68 0.72 0.78 0.81 0.84
0.18 0.18 0.19 0.19 0.19 0.20 0.21 0.21 0.21 0.23 0.24 0.24 0.24 0.25 0.24 0.25 0.25 0.26 0.26 0.26 0.25 0.24 0.24 0.22 0.20 0.21 0.25 0.27 0.27 0.30 0.31 0.32 0.32 0.30 0.29 0.29 0.32 0.34 0.33 0.33 0.40 0.44 0.46 0.49 0.48 0.48 0.52 0.59 0.64 0.64 0.64 0.63 0.63 0.62 0.63 0.64 0.66 0.64 0.63 0.60 0.58 0.57 0.56 0.56 0.56 0.56 0.56 0.57 0.60 0.63 0.66 0.70 0.77 0.82
0.19 0.20 0.21 0.21 0.21 0.22 0.22 0.22 0.22 0.23 0.24 0.25 0.24 0.25 0.26 0.26 0.25 0.25 0.25 0.25 0.27 0.24 0.25 0.23 0.22 0.24 0.26 0.29 0.30 0.31 0.30 0.30 0.31 0.31 0.30 0.27 0.29 0.30 0.32 0.33 0.33 0.40 0.43 0.45 0.47 0.48 0.49 0.53 0.59 0.63 0.63 0.63 0.62 0.62 0.62 0.63 0.64 0.64 0.64 0.63 0.61 0.59 0.58 0.56 0.56 0.57 0.58 0.59 0.60 0.61 0.62 0.64 0.68 0.75
0.20 0.21 0.21 0.22 0.22 0.23 0.23 0.23 0.24 0.25 0.25 0.25 0.25 0.25 0.26 0.26 0.25 0.25 0.26 0.27 0.27 0.27 0.25 0.23 0.25 0.26 0.27 0.28 0.28 0.28 0.27 0.26 0.27 0.30 0.31 0.29 0.32 0.33 0.32 0.33 0.35 0.36 0.38 0.42 0.44 0.46 0.48 0.47 0.50 0.56 0.60 0.61 0.62 0.62 0.62 0.63 0.64 0.64 0.64 0.64 0.64 0.63 0.62 0.60 0.58 0.57 0.58 0.59 0.61 0.62 0.62 0.60 0.62 0.66
0.21 0.22 0.23 0.23 0.23 0.23 0.23 0.24 0.24 0.26 0.26 0.27 0.27 0.26 0.26 0.26 0.26 0.26 0.27 0.27 0.28 0.27 0.26 0.25 0.26 0.26 0.26 0.27 0.27 0.27 0.28 0.29 0.31 0.30 0.30 0.28 0.31 0.32 0.32 0.33 0.33 0.35 0.34 0.35 0.37 0.41 0.47 0.47 0.47 0.50 0.54 0.59 0.60 0.61 0.62 0.62 0.63 0.63 0.63 0.62 0.62 0.64 0.64 0.64 0.63 0.61 0.59 0.59 0.60 0.61 0.62 0.62 0.62 0.63
0.21 0.22 0.23 0.24 0.25 0.25 0.24 0.25 0.26 0.27 0.27 0.26 0.27 0.27 0.27 0.27 0.26 0.26 0.27 0.27 0.28 0.27 0.26 0.27 0.27 0.26 0.27 0.27 0.27 0.27 0.30 0.32 0.31 0.31 0.30 0.29 0.30 0.29 0.28 0.27 0.32 0.37 0.35 0.34 0.32 0.36 0.44 0.46 0.44 0.46 0.49 0.54 0.58 0.59 0.60 0.61 0.61 0.61 0.62 0.62 0.62 0.63 0.64 0.65 0.65 0.65 0.63 0.62 0.62 0.63 0.63 0.62 0.62 0.62
0.21 0.22 0.24 0.25 0.26 0.26 0.25 0.26 0.26 0.26 0.26 0.26 0.26 0.27 0.27 0.27 0.27 0.28 0.27 0.27 0.27 0.27 0.26 0.26 0.26 0.26 0.25 0.27 0.28 0.27 0.29 0.30 0.32 0.32 0.32 0.31 0.29 0.29 0.29 0.29 0.29 0.34 0.37 0.35 0.34 0.33 0.40 0.45 0.44 0.44 0.46 0.50 0.54 0.57 0.58 0.60 0.60 0.60 0.60 0.60 0.61 0.61 0.62 0.63 0.64 0.65 0.66 0.65 0.64 0.64 0.65 0.66 0.64 0.63
0.22 0.22 0.23 0.24 0.25 0.26 0.27 0.27 0.26 0.26 0.26 0.26 0.25 0.26 0.26 0.26 0.27 0.27 0.27 0.29 0.29 0.29 0.27 0.26 0.26 0.26 0.26 0.26 0.28 0.29 0.28 0.31 0.30 0.31 0.31 0.32 0.31 0.31 0.30 0.31 0.33 0.35 0.39 0.36 0.34 0.33 0.37 0.41 0.42 0.43 0.46 0.50 0.52 0.54 0.56 0.57 0.58 0.60 0.60 0.60 0.60 0.61 0.61 0.61 0.62 0.62 0.64 0.64 0.65 0.65 0.64 0.65 0.67 0.66
0.22 0.23 0.23 0.24 0.24 0.26 0.27 0.27 0.27 0.27 0.26 0.26 0.26 0.26 0.25 0.25 0.26 0.26 0.26 0.26 0.27 0.28 0.27 0.26 0.25 0.27 0.28 0.27 0.29 0.32 0.32 0.29 0.28 0.29 0.29 0.31 0.31 0.31 0.31 0.35 0.35 0.37 0.39 0.35 0.34 0.33 0.36 0.39 0.40 0.41 0.44 0.48 0.50 0.52 0.53 0.55 0.56 0.57 0.58 0.59 0.59 0.60 0.60 0.61 0.61 0.61 0.62 0.63 0.63 0.63 0.64 0.65 0.66 0.67
0.22 0.23 0.24 0.24 0.23 0.24 0.25 0.27 0.28 0.27 0.27 0.27 0.26 0.25 0.25 0.25 0.25 0.26 0.26 0.26 0.26 0.26 0.26 0.26 0.26 0.28 0.29 0.29 0.31 0.32 0.33 0.31 0.31 0.31 0.30 0.31 0.32 0.33 0.35 0.35 0.36 0.37 0.39 0.38 0.35 0.30 0.34 0.38 0.37 0.38 0.43 0.46 0.47 0.50 0.52 0.53 0.53 0.55 0.57 0.58 0.58 0.59 0.59 0.60 0.60 0.61 0.62 0.61 0.62 0.62 0.62 0.63 0.64 0.66
0.23 0.23 0.23 0.23 0.23 0.24 0.25 0.26 0.27 0.28 0.28 0.26 0.26 0.25 0.25 0.25 0.26 0.26 0.27 0.27 0.27 0.26 0.26 0.26 0.26 0.27 0.29 0.30 0.30 0.32 0.32 0.32 0.31 0.30 0.31 0.31 0.31 0.30 0.29 0.28 0.32 0.32 0.36 0.38 0.35 0.32 0.33 0.37 0.35 0.36 0.41 0.44 0.44 0.46 0.48 0.51 0.53 0.53 0.54 0.55 0.56 0.57 0.57 0.58 0.58 0.59 0.60 0.61 0.62 0.62 0.62 0.62 0.61 0.64
0.23 0.23 0.23 0.23 0.23 0.23 0.24 0.26 0.26 0.27 0.28 0.27 0.26 0.25 0.25 0.25 0.26 0.26 0.28 0.29 0.29 0.28 0.28 0.27 0.27 0.27 0.28 0.29 0.29 0.30 0.32 0.32 0.30 0.29 0.26 0.25 0.27 0.25 0.25 0.26 0.28 0.29 0.33 0.36 0.36 0.34 0.32 0.35 0.35 0.35 0.38 0.39 0.41 0.43 0.45 0.47 0.49 0.51 0.52 0.52 0.53 0.54 0.55 0.56 0.56 0.57 0.58 0.59 0.60 0.61 0.61 0.61 0.61 0.62
0.22 0.23 0.23 0.24 0.24 0.24 0.25 0.25 0.26 0.26 0.27 0.26 0.26 0.25 0.25 0.25 0.25 0.25 0.27 0.28 0.28 0.29 0.29 0.29 0.28 0.28 0.28 0.30 0.30 0.30 0.30 0.31 0.30 0.27 0.23 0.26 0.26 0.24 0.24 0.23 0.26 0.28 0.31 0.32 0.36 0.32 0.31 0.33 0.35 0.34 0.35 0.36 0.38 0.40 0.43 0.44 0.46 0.48 0.49 0.50 0.50 0.51 0.52 0.53 0.54 0.55 0.56 0.57 0.58 0.58 0.59 0.60 0.60 0.61
0.23 0.24 0.24 0.24 0.24 0.24 0.23 0.23 0.24 0.24 0.25 0.25 0.25 0.25 0.25 0.25 0.24 0.25 0.27 0.27 0.27 0.28 0.28 0.28 0.29 0.29 0.29 0.29 0.29 0.29 0.29 0.30 0.29 0.28 0.26 0.27 0.25 0.23 0.23 0.24 0.25 0.24 0.26 0.31 0.35 0.29 0.30 0.30 0.32 0.32 0.30 0.28 0.32 0.36 0.38 0.40 0.42 0.44 0.45 0.46 0.47 0.48 0.49 0.50 0.51 0.51 0.52 0.54 0.55 0.57 0.58 0.58 0.58 0.58
0.24 0.24 0.24 0.24 0.24 0.25 0.25 0.25 0.25 0.25 0.25 0.24 0.24 0.24 0.23 0.23 0.24 0.27 0.27 0.27 0.27 0.28 0.28 0.28 0.29 0.29 0.30 0.30 0.30 0.29 0.29 0.29 0.29 0.28 0.28 0.27 0.26 0.25 0.24 0.23 0.23 0.22 0.24 0.29 0.33 0.29 0.31 0.30 0.29 0.32 0.29 0.26 0.25 0.30 0.33 0.35 0.38 0.40 0.42 0.42 0.42 0.44 0.46 0.46 0.47 0.49 0.50 0.51 0.52 0.54 0.55 0.56 0.56 0.55
0.23 0.24 0.25 0.25 0.26 0.26 0.26 0.26 0.26 0.26 0.26 0.25 0.25 0.24 0.22 0.22 0.24 0.27 0.27 0.27 0.28 0.27 0.28 0.28 0.29 0.29 0.29 0.30 0.30 0.29 0.29 0.29 0.29 0.28 0.28 0.27 0.27 0.26 0.25 0.24 0.23 0.23 0.25 0.28 0.30 0.30 0.28 0.29 0.28 0.28 0.28 0.29 0.28 0.28 0.30 0.31 0.34 0.36 0.38 0.39 0.39 0.41 0.42 0.43 0.44 0.45 0.47 0.49 0.50 0.51 0.52 0.53 0.53 0.52
0.25 0.25 0.26 0.26 0.26 0.27 0.27 0.27 0.28 0.27 0.27 0.27 0.26 0.26 0.26 0.25 0.24 0.24 0.26 0.27 0.27 0.27 0.27 0.27 0.27 0.28 0.28 0.28 0.29 0.29 0.29 0.28 0.28 0.28 0.28 0.28 0.27 0.28 0.28 0.26 0.25 0.23 0.24 0.28 0.29 0.28 0.29 0.27 0.27 0.26 0.27 0.27 0.27 0.27 0.26 0.28 0.30 0.32 0.34 0.36 0.37 0.38 0.40 0.40 0.41 0.41 0.43 0.45 0.46 0.48 0.49 0.50 0.50 0.51
0.23 0.25 0.25 0.26 0.27 0.27 0.27 0.27 0.27 0.27 0.27 0.27 0.27 0.27 0.27 0.27 0.27 0.26 0.26 0.25 0.25 0.26 0.26 0.26 0.26 0.26 0.27 0.27 0.27 0.27 0.28 0.29 0.29 0.29 0.29 0.29 0.28 0.28 0.28 0.30 0.30 0.29 0.29 0.29 0.29 0.29 0.29 0.27 0.29 0.26 0.26 0.26 0.24 0.25 0.25 0.24 0.26 0.30 0.30 0.31 0.33 0.34 0.36 0.37 0.38 0.39 0.40 0.41 0.43 0.45 0.46 0.47 0.48 0.49
0.24 0.24 0.25 0.26 0.27 0.27 0.26 0.26 0.26 0.26 0.26 0.26 0.26 0.26 0.26 0.27 0.27 0.27 0.26 0.25 0.25 0.24 0.24 0.24 0.25 0.25 0.26 0.26 0.26 0.27 0.28 0.28 0.29 0.29 0.30 0.30 0.30 0.29 0.29 0.30 0.30 0.31 0.30 0.30 0.30 0.29 0.28 0.27 0.27 0.28 0.28 0.26 0.24 0.22 0.22 0.25 0.26 0.26 0.26 0.28 0.30 0.30 0.32 0.33 0.34 0.35 0.37 0.38 0.38 0.40 0.41 0.42 0.44 0.45
0.26 0.26 0.27 0.27 0.27 0.27 0.26 0.26 0.26 0.26 0.25 0.24 0.25 0.26 0.26 0.27 0.27 0.26 0.25 0.25 0.25 0.24 0.23 0.23 0.24 0.24 0.26 0.26 0.27 0.28 0.29 0.29 0.31 0.31 0.30 0.30 0.31 0.30 0.30 0.29 0.30 0.31 0.30 0.30 0.30 0.30 0.29 0.27 0.26 0.27 0.27 0.27 0.25 0.24 0.23 0.21 0.22 0.22 0.23 0.23 0.23 0.26 0.28 0.29 0.30 0.31 0.32 0.34 0.35 0.36 0.37 0.38 0.39 0.42
0.26 0.26 0.26 0.26 0.26 0.26 0.25 0.25 0.25 0.25 0.25 0.25 0.24 0.25 0.26 0.26 0.25 0.25 0.25 0.25 0.24 0.23 0.24 0.24 0.23 0.24 0.25 0.26 0.27 0.29 0.30 0.28 0.28 0.28 0.28 0.28 0.28 0.28 0.28 0.27 0.27 0.29 0.30 0.30 0.30 0.30 0.29 0.28 0.27 0.27 0.26 0.26 0.25 0.22 0.21 0.20 0.19 0.20 0.21 0.21 0.21 0.23 0.24 0.25 0.25 0.27 0.28 0.29 0.31 0.32 0.33 0.36 0.37 0.38
0.26 0.26 0.26 0.27 0.27 0.27 0.27 0.25 0.24 0.24 0.25 0.24 0.24 0.24 0.24 0.24 0.24 0.25 0.25 0.25 0.24 0.24 0.24 0.25 0.25 0.25 0.26 0.27 0.27 0.27 0.27 0.26 0.28 0.29 0.28 0.28 0.27 0.28 0.27 0.26 0.25 0.27 0.28 0.30 0.30 0.30 0.29 0.28 0.27 0.27 0.24 0.23 0.23 0.22 0.22 0.21 0.19 0.19 0.20 0.20 0.20 0.17 0.19 0.21 0.22 0.22 0.24 0.25 0.27 0.28 0.29 0.31 0.33 0.35
0.26 0.25 0.26 0.26 0.26 0.25 0.25 0.24 0.23 0.23 0.23 0.23 0.22 0.23 0.24 0.24 0.24 0.24 0.25 0.26 0.25 0.25 0.26 0.26 0.26 0.26 0.26 0.25 0.25 0.26 0.25 0.26 0.27 0.28 0.28 0.27 0.27 0.27 0.27 0.25 0.24 0.26 0.27 0.28 0.28 0.29 0.29 0.29 0.28 0.27 0.26 0.24 0.22 0.23 0.23 0.21 0.20 0.20 0.19 0.20 0.20 0.20 0.20 0.19 0.20 0.21 0.22 0.22 0.22 0.23 0.24 0.26 0.27 0.30
0.25 0.24 0.24 0.24 0.23 0.22 0.21 0.21 0.21 0.21 0.22 0.22 0.22 0.22 0.24 0.26 0.25 0.24 0.24 0.24 0.25 0.25 0.25 0.25 0.25 0.25 0.26 0.25 0.27 0.26 0.25 0.26 0.26 0.27 0.27 0.27 0.26 0.26 0.25 0.24 0.25 0.25 0.25 0.26 0.27 0.28 0.29 0.29 0.29 0.28 0.27 0.26 0.26 0.25 0.24 0.22 0.22 0.22 0.20 0.20 0.21 0.20 0.20 0.21 0.21 0.20 0.21 0.21 0.20 0.20 0.21 0.22 0.23 0.25
0.23 0.23 0.22 0.22 0.21 0.20 0.20 0.19 0.19 0.19 0.20 0.20 0.20 0.22 0.24 0.25 0.24 0.24 0.24 0.25 0.25 0.26 0.25 0.25 0.25 0.25 0.25 0.26 0.26 0.26 0.25 0.26 0.26 0.27 0.26 0.25 0.25 0.23 0.23 0.23 0.23 0.25 0.25 0.25 0.26 0.27 0.27 0.28 0.28 0.28 0.27 0.27 0.27 0.27 0.25 0.24 0.23 0.23 0.23 0.21 0.21 0.21 0.21 0.21 0.22 0.22 0.22 0.21 0.20 0.19 0.19 0.20 0.21 0.22
0.22 0.22 0.21 0.21 0.21 0.20 0.20 0.19 0.19 0.19 0.20 0.19 0.20 0.21 0.22 0.23 0.21 0.23 0.25 0.25 0.26 0.26 0.26 0.26 0.25 0.26 0.26 0.26 0.26 0.26 0.25 0.25 0.25 0.26 0.26 0.26 0.25 0.23 0.23 0.22 0.22 0.22 0.22 0.22 0.23 0.24 0.25 0.25 0.25 0.24 0.24 0.24 0.24 0.25 0.26 0.25 0.23 0.22 0.22 0.22 0.21 0.20 0.20 0.20 0.21 0.21 0.21 0.21 0.21 0.19 0.19 0.19 0.20 0.21
0.21 0.22 0.21 0.20 0.20 0.20 0.20 0.20 0.20 0.19 0.20 0.20 0.20 0.20 0.20 0.21 0.22 0.24 0.23 0.23 0.27 0.26 0.26 0.26 0.25 0.26 0.26 0.26 0.26 0.26 0.26 0.25 0.25 0.25 0.24 0.24 0.24 0.23 0.24 0.23 0.23 0.23 0.22 0.21 0.21 0.22 0.23 0.23 0.22 0.21 0.20 0.19 0.19 0.18 0.19 0.24 0.24 0.22 0.20 0.19 0.20 0.19 0.20 0.20 0.20 0.20 0.20 0.19 0.19 0.19 0.17 0.17 0.18 0.19
0.21 0.21 0.20 0.20 0.19 0.19 0.19 0.19 0.20 0.20 0.20 0.20 0.20 0.20 0.20 0.20 0.22 0.23 0.24 0.26 0.25 0.26 0.26 0.25 0.26 0.26 0.26 0.26 0.26 0.26 0.25 0.25 0.23 0.24 0.23 0.24 0.23 0.23 0.23 0.23 0.23 0.23 0.23 0.23 0.23 0.23 0.23 0.22 0.22 0.21 0.19 0.18 0.17 0.16 0.17 0.21 0.22 0.24 0.22 0.20 0.19 0.19 0.19 0.19 0.18 0.18 0.18 0.18 0.18 0.18 0.17 0.17 0.17 0.18
0.20 0.20 0.20 0.20 0.20 0.19 0.19 0.19 0.20 0.20 0.20 0.20 0.21 0.21 0.21 0.22 0.22 0.23 0.25 0.25 0.25 0.25 0.25 0.25 0.25 0.25 0.25 0.25 0.25 0.24 0.23 0.24 0.24 0.23 0.23 0.23 0.22 0.22 0.22 0.21 0.21 0.21 0.21 0.22 0.22 0.22 0.23 0.22 0.22 0.21 0.20 0.18 0.17 0.16 0.16 0.18 0.19 0.21 0.23 0.22 0.20 0.19 0.20 0.19 0.18 0.17 0.18 0.18 0.18 0.18 0.18 0.17 0.17 0.18
0.19 0.20 0.19 0.19 0.20 0.20 0.19 0.19 0.19 0.19 0.19 0.19 0.20 0.20 0.21 0.21 0.22 0.23 0.23 0.23 0.24 0.24 0.24 0.24 0.24 0.24 0.25 0.25 0.25 0.24 0.23 0.23 0.22 0.22 0.22 0.22 0.22 0.22 0.22 0.21 0.21 0.21 0.21 0.21 0.21 0.21 0.21 0.21 0.21 0.21 0.21 0.19 0.18 0.18 0.19 0.18 0.18 0.20 0.22 0.23 0.22 0.20 0.20 0.19 0.19 0.19 0.19 0.18 0.19 0.19 0.19 0.19 0.19 0.19
0.19 0.19 0.20 0.19 0.19 0.19 0.19 0.19 0.19 0.19 0.19 0.19 0.19 0.19 0.20 0.20 0.21 0.22 0.22 0.22 0.23 0.23 0.23 0.23 0.24 0.24 0.24 0.24 0.24 0.24 0.23 0.23 0.22 0.22 0.22 0.22 0.22 0.22 0.22 0.22 0.21 0.21 0.21 0.20 0.20 0.20 0.20 0.20 0.21 0.21 0.22 0.22 0.21 0.21 0.21 0.20 0.20 0.20 0.20 0.22 0.23 0.22 0.21 0.20 0.19 0.19 0.19 0.19 0.19 0.18 0.18 0.19 0.18 0.19
0.18 0.19 0.19 0.19 0.19 0.19 0.19 0.19 0.19 0.19 0.19 0.19 0.19 0.19 0.19 0.19 0.19 0.20 0.21 0.22 0.22 0.22 0.22 0.22 0.22 0.23 0.22 0.23 0.23 0.23 0.22 0.22 0.22 0.22 0.22 0.21 0.21 0.21 0.21 0.21 0.21 0.21 0.20 0.20 0.20 0.20 0.20 0.22 0.23 0.23 0.23 0.23 0.22 0.22 0.20 0.18 0.17 0.18 0.19 0.20 0.22 0.23 0.23 0.22 0.21 0.20 0.19 0.20 0.19 0.18 0.18 0.17 0.17 0.18
0.18 0.18 0.19 0.19 0.19 0.19 0.19 0.19 0.19 0.19 0.19 0.19 0.19 0.19 0.19 0.19 0.19 0.19 0.19 0.20 0.20 0.21 0.21 0.22 0.21 0.22 0.21 0.22 0.22 0.22 0.21 0.21 0.21 0.21 0.21 0.21 0.20 0.20 0.21 0.21 0.20 0.20 0.20 0.19 0.19 0.20 0.21 0.22 0.22 0.22 0.22 0.21 0.20 0.18 0.17 0.17 0.17 0.18 0.19 0.20 0.21 0.22 0.23 0.23 0.22 0.22 0.21 0.20 0.19 0.18 0.17 0.17 0.17 0.16
0.18 0.18 0.18 0.18 0.19 0.19 0.19 0.19 0.19 0.19 0.19 0.19 0.18 0.18 0.18 0.18 0.18 0.18 0.18 0.18 0.18 0.19 0.19 0.20 0.20 0.21 0.21 0.21 0.21 0.21 0.21 0.20 0.20 0.20 0.20 0.20 0.20 0.19 0.19 0.20 0.19 0.19 0.19 0.19 0.19 0.20 0.20 0.21 0.21 0.20 0.20 0.20 0.19 0.19 0.18 0.18 0.18 0.19 0.19 0.19 0.19 0.20 0.21 0.22 0.23 0.22 0.22 0.21 0.20 0.19 0.19 0.17 0.16 0.14
0.17 0.17 0.18 0.17 0.17 0.17 0.18 0.18 0.18 0.18 0.18 0.18 0.18 0.18 0.18 0.17 0.17 0.17 0.17 0.17 0.17 0.17 0.17 0.18 0.18 0.19 0.19 0.20 0.20 0.20 0.20 0.20 0.20 0.19 0.19 0.19 0.19 0.19 0.19 0.19 0.19 0.19 0.19 0.19 0.19 0.19 0.20 0.20 0.20 0.20 0.19 0.19 0.19 0.19 0.18 0.18 0.18 0.18 0.19 0.19 0.19 0.18 0.18 0.19 0.20 0.21 0.21 0.21 0.20 0.20 0.19 0.19 0.18 0.18
0.15 0.16 0.17 0.17 0.17 0.17 0.17 0.17 0.17 0.18 0.18 0.18 0.18 0.18 0.18 0.17 0.17 0.17 0.17 0.17 0.17 0.17 0.17 0.16 0.17 0.17 0.18 0.19 0.19 0.18 0.19 0.19 0.19 0.19 0.19 0.19 0.19 0.19 0.19 0.18 0.18 0.18 0.18 0.18 0.17 0.17 0.18 0.18 0.18 0.19 0.18 0.18 0.18 0.18 0.17 0.17 0.17 0.17 0.17 0.17 0.16 0.16 0.16 0.16 0.16 0.16 0.16 0.16 0.18 0.19 0.19 0.18 0.18 0.17
Wind_Speed
60 61 62 63 64 65 65 65 66 66 66 66 66 66 65 65 65 65 67 67 68 69 70 70 70 70 71 72 74 74 74 73 72 70 71 72 72 73 73 72 72 71 71 70 68 66 65 64 64 64 62 61 60 58 55 54 54 53 53 52 53 52 51 49 48 47 47 47 48 48 48 48 48 48
56 57 59 59 60 61 62 63 64 64 64 65 66 66 65 65 64 64 64 65 65 65 66 67 68 68 69 70 71 73 74 74 74 72 71 73 73 73 73 73 72 72 72 71 70 68 66 65 65 65 64 63 62 61 58 56 55 55 53 52 52 53 52 51 51 49 48 47 47 48 48 48 48 48
51 53 54 55 56 57 58 59 60 61 61 62 63 64 64 65 65 64 64 64 64 64 63 64 64 64 66 68 69 71 73 74 75 73 72 72 73 74 74 74 73 73 72 72 71 69 68 67 66 65 65 64 63 63 62 60 57 56 55 54 53 53 53 53 53 52 51 49 48 48 48 48 48 48
44 47 49 51 52 53 54 55 56 57 57 58 59 60 61 63 63 63 64 64 64 64 63 63 64 63 63 64 66 68 71 73 74 75 73 72 72 73 74 74 74 73 73 72 71 70 69 68 68 66 66 65 65 64 64 63 61 59 58 57 56 55 54 54 53 53 52 51 50 49 49 48 48 49
38 40 42 44 46 48 50 51 52 53 53 54 56 57 58 59 60 61 62 62 62 63 63 63 64 65 64 64 64 65 67 69 72 74 74 73 72 72 73 74 75 74 74 73 72 71 70 69 69 68 67 66 66 65 65 64 64 62 61 59 58 57 56 55 55 54 54 53 53 52 51 50 49 49
32 34 36 38 40 42 44 46 48 49 50 51 52 54 55 56 57 58 59 59 59 61 61 62 62 63 63 64 64 64 65 66 68 71 73 73 72 72 72 73 74 74 74 74 73 72 70 69 69 68 68 67 66 66 65 65 65 64 63 62 60 59 58 58 57 56 55 55 54 54 53 52 51 51
28 29 31 32 34 36 38 40 42 44 46 47 49 50 52 53 54 54 55 56 56 57 58 59 59 60 61 61 62 63 63 63 65 68 71 72 72 71 71 72 73 74 74 74 74 72 71 70 69 69 68 67 66 65 65 65 65 64 64 63 63 61 60 59 58 58 57 56 55 55 55 54 53 52
25 26 27 28 29 31 33 35 36 38 40 42 44 46 47 49 49 50 51 52 54 54 55 56 56 57 58 59 59 60 60 61 62 65 68 70 71 71 70 71 72 73 73 74 74 73 71 70 70 69 69 68 67 66 65 65 64 64 64 63 63 63 62 61 60 59 59 58 57 56 56 56 56 55
23 24 26 27 27 28 29 30 32 33 35 37 39 41 42 44 45 45 47 48 50 51 52 53 53 53 54 54 56 57 57 58 59 61 64 67 69 70 70 70 70 71 72 73 74 74 72 71 70 69 69 69 69 67 65 64 64 64 63 63 63 63 63 62 62 61 60 60 59 58 58 57 57 57
22 23 24 25 26 26 27 28 29 30 32 32 34 35 37 38 39 41 42 44 46 48 48 49 50 50 50 50 51 53 54 55 56 58 60 63 67 69 69 69 68 69 69 70 72 73 73 73 71 70 69 70 70 69 67 65 64 63 63 62 62 63 63 62 62 62 61 61 60 59 59 58 58 57
19 20 22 23 24 25 25 26 27 28 29 29 30 31 32 34 35 36 38 40 42 44 44 45 46 46 46 47 47 49 51 53 54 56 58 60 63 66 68 68 68 67 67 68 69 71 72 73 72 71 70 70 70 69 69 67 65 64 63 63 62 62 62 62 62 61 61 61 61 60 60 60 59 59
16 17 19 20 22 23 23 24 25 26 27 27 27 28 29 30 31 32 33 35 37 39 40 41 41 41 41 43 44 45 48 50 51 53 55 57 59 62 65 67 68 67 67 66 66 68 69 71 72 71 69 69 70 69 69 69 67 66 64 64 63 62 62 61 62 61 61 61 61 61 61 60 60 60
14 15 16 18 20 21 22 23 24 25 25 25 25 26 26 27 28 28 29 30 32 33 35 36 37 38 38 39 40 42 45 47 49 50 52 54 56 58 60 63 65 66 67 66 65 65 66 68 70 70 69 68 69 69 69 69 68 67 66 64 64 63 62 61 61 61 61 61 61 61 61 61 61 61
11 12 14 16 18 19 20 21 22 24 24 24 25 25 25 25 25 25 26 26 27 28 30 32 33 34 35 35 36 38 40 42 45 47 48 50 52 54 56 59 61 63 65 65 65 65 65 65 67 68 68 68 67 67 68 69 68 67 66 65 64 64 63 62 61 61 61 61 60 60 61 61 61 61
10 11 12 13 15 17 18 19 20 21 22 23 24 25 25 25 25 24 24 24 24 25 27 29 30 31 32 32 33 35 36 37 39 42 45 47 48 50 53 55 58 60 62 63 63 64 64 64 64 65 67 67 67 66 66 67 68 67 67 66 65 64 64 63 62 62 62 61 61 61 61 61 61 61
9 9 9 10 11 13 16 17 18 19 20 21 22 24 25 25 26 25 25 24 24 24 25 27 28 29 29 30 31 32 34 34 34 36 38 42 45 47 49 51 54 57 59 60 61 62 63 63 63 63 64 65 66 66 66 66 66 67 67 66 66 66 65 64 63 62 62 62 62 62 62 62 62 62
9 9 8 8 8 9 12 15 16 16 17 19 20 22 23 24 25 26 26 26 26 26 26 27 28 28 28 28 29 30 32 33 33 33 34 36 40 43 45 46 49 52 56 57 58 60 62 62 62 61 61 62 63 65 65 65 65 65 66 66 66 66 66 65 65 64 63 63 63 63 63 63 63 63
9 9 8 8 8 7 8 11 13 14 16 17 18 19 21 22 24 25 26 26 27 27 27 28 28 28 28 28 28 29 30 31 32 33 33 34 35 38 39 41 43 47 51 54 55 56 58 60 60 59 59 59 60 61 63 64 65 65 64 64 64 64 65 65 65 65 65 65 64 64 64 64 64 64
9 9 9 9 9 8 8 8 10 12 14 15 16 18 19 21 22 23 24 25 26 27 28 28 29 29 28 28 28 29 30 30 31 32 33 33 34 35 36 37 39 42 45 49 51 53 55 57 58 58 57 57 58 59 60 62 63 64 64 63 62 62 63 63 63 64 64 65 65 64 64 64 64 64
9 9 9 9 9 10 9 9 10 11 12 13 15 16 18 19 20 22 23 25 26 27 28 28 29 30 30 30 30 30 30 31 31 32 32 33 34 34 35 36 38 39 41 44 47 49 51 54 55 56 56 56 56 57 58 59 61 62 63 63 62 62 62 62 62 62 62 63 63 63 63 63 63 64
8 8 9 10 10 10 11 11 11 12 12 13 14 15 17 18 19 20 22 23 25 26 28 28 29 30 31 32 32 32 32 32 32 32 33 33 34 34 35 36 38 38 39 41 43 45 48 51 52 54 55 55 55 55 55 56 57 59 60 61 61 61 61 61 61 61 61 62 62 62 62 62 62 62
8 8 9 10 10 11 11 12 12 13 13 13 14 15 15 17 18 19 20 21 23 24 26 27 28 29 30 31 32 32 33 34 34 34 33 34 34 35 35 36 37 38 39 40 41 42 44 47 49 51 52 53 54 54 53 53 54 55 56 57 58 58 59 59 60 60 60 60 60 61 61 61 61 60
8 9 10 10 11 11 12 12 13 13 13 13 14 15 15 16 17 17 18 19 20 21 23 24 26 27 28 29 31 32 33 34 35 35 34 34 35 35 36 36 37 38 39 40 41 41 42 43 45 48 49 50 51 53 53 52 52 53 53 54 54 55 56 56 57 58 58 58 58 59 60 60 60 59
9 9 10 10 11 12 13 13 14 14 15 15 15 15 16 16 16 16 17 18 19 20 20 22 23 24 26 27 28 29 31 32 34 35 35 35 35 35 35 36 37 38 38 40 41 41 41 41 43 45 47 48 49 51 52 51 51 51 52 53 53 53 54 54 55 56 56 57 56 56 57 58 58 58
9 10 10 10 11 12 13 13 14 15 16 17 17 17 18 18 18 17 17 18 18 19 19 20 20 21 23 24 25 26 28 29 31 33 34 35 36 36 36 35 36 37 37 39 40 41 41 41 42 43 44 45 47 48 50 50 51 51 51 52 52 52 53 53 53 54 55 55 56 55 56 56 57 58
9 10 10 11 11 12 13 14 15 15 16 17 18 19 19 20 21 20 19 19 18 18 19 19 19 20 21 22 22 23 24 26 28 29 31 33 34 35 36 36 36 36 37 37 39 41 41 41 41 42 42 43 45 46 48 49 50 50 51 52 52 52 53 53 53 53 54 54 55 55 55 55 56 58
9 9 9 10 11 12 13 14 15 16 17 17 18 19 21 21 22 22 22 21 21 20 19 19 20 20 20 20 21 22 22 23 25 26 28 29 31 32 34 35 35 36 36 37 38 40 42 42 42 42 42 43 44 45 46 48 49 50 51 51 52 52 52 53 53 53 54 54 55 55 55 55 56 56
9 9 10 11 12 13 14 15 15 16 17 18 19 20 21 22 23 23 23 24 23 22 21 20 20 20 20 20 20 21 21 22 23 24 25 26 27 29 31 32 33 34 35 36 37 39 40 41 42 42 42 43 43 44 45 47 48 50 51 52 52 53 53 53 54 54 54 55 55 56 56 56 56 56
10 10 11 12 12 13 14 14 15 15 16 17 18 19 20 21 22 23 24 25 25 24 22 21 20 20 20 20 20 20 20 20 21 22 23 23 24 25 27 29 30 31 32 33 35 37 38 39 40 41 42 42 43 44 45 46 47 48 50 51 52 53 54 54 54 55 55 55 56 56 57 58 58 58
10 10 11 11 12 12 12 12 12 12 13 14 15 16 17 18 19 20 22 24 25 25 24 22 21 20 19 19 19 19 19 19 20 20 21 21 22 23 25 26 27 28 29 30 31 33 35 37 38 39 41 42 42 42 43 44 45 47 48 50 51 52 53 55 55 55 56 56 56 56 57 58 59 60
9 9 10 10 10 10 9 9 9 10 10 11 12 12 13 14 16 17 19 21 23 25 24 23 22 20 19 19 19 19 18 18 18 18 19 19 20 21 22 24 25 26 26 27 28 29 31 33 34 36 37 38 39 40 40 41 42 44 45 47 48 49 50 52 53 54 55 56 57 57 57 58 58 59
9 9 8 8 8 8 8 7 8 8 9 10 10 9 8 10 12 14 16 18 20 22 23 23 22 21 20 19 19 19 18 18 17 17 17 18 18 19 20 21 23 24 24 25 26 26 27 28 30 32 33 34 35 36 37 38 39 40 42 44 45 46 47 48 50 51 53 54 55 56 57 57 58 59
9 8 7 7 7 8 8 7 8 8 9 9 8 7 5 4 6 10 12 14 16 19 21 22 22 21 20 20 20 19 19 18 17 17 16 16 16 18 19 19 20 22 22 23 24 25 25 26 27 28 29 31 32 33 34 36 37 38 39 40 42 43 44 46 47 48 50 51 52 54 55 56 57 58
8 7 7 7 7 8 7 7 8 8 8 8 8 7 7 4 2 6 9 11 13 15 18 20 21 21 20 20 20 19 19 18 17 17 17 16 16 17 17 18 18 19 20 21 22 22 23 24 25 26 27 28 29 31 32 33 34 35 36 37 39 41 43 44 45 46 48 49 50 51 53 54 55 56
8 8 7 7 7 8 8 8 7 7 7 7 7 7 7 7 6 4 6 8 10 12 14 17 18 19 19 19 19 19 18 18 17 17 17 17 17 17 17 17 17 17 18 18 19 20 21 22 23 23 24 25 26 28 30 31 31 32 33 35 36 38 40 42 43 45 46 48 49 50 51 52 53 54
9 8 7 7 8 8 8 8 8 7 7 7 7 7 7 8 8 7 6 6 8 10 12 14 15 16 17 18 18 19 18 18 18 17 17 18 18 17 17 17 17 17 17 18 18 19 19 20 21 21 22 23 24 25 26 28 30 30 31 32 33 35 37 38 40 42 44 46 47 49 50 51 52 53
9 8 8 7 7 8 8 9 9 9 8 8 8 8 8 8 8 8 7 7 7 8 10 11 12 13 14 16 17 18 18 18 18 18 18 18 18 18 17 17 17 17 18 18 19 19 19 20 20 21 21 21 22 23 24 25 27 29 30 31 32 33 34 35 37 39 41 43 45 46 48 49 51 52
9 8 7 7 7 6 7 8 9 9 9 9 9 9 8 8 8 8 8 8 8 8 9 9 9 10 11 13 14 15 16 17 18 18 18 18 18 18 18 18 18 18 18 18 19 20 20 20 21 21 22 22 23 24 24 25 26 28 30 31 31 32 33 34 35 37 38 40 42 44 45 47 48 49
8 8 7 7 6 5 5 6 7 8 8 9 9 9 9 8 8 8 8 8 8 8 8 8 8 8 9 9 11 12 13 14 15 16 17 18 18 18 18 18 18 18 18 19 19 19 20 21 21 22 22 23 23 23 24 25 26 27 29 31 32 33 33 35 36 37 38 39 41 42 44 45 46 47
8 7 6 6 5 5 4 4 5 6 6 7 8 8 8 8 8 8 8 7 7 7 7 7 7 7 7 8 8 9 10 11 12 13 14 15 15 16 16 16 16 16 17 17 17 18 18 19 19 20 20 21 22 22 23 24 25 26 27 29 31 32 33 35 36 37 38 39 40 42 43 45 46 47
8 7 6 5 5 4 4 3 3 3 4 5 5 5 6 6 6 6 6 6 6 6 6 6 6 6 6 6 7 8 8 9 9 10 11 11 12 12 13 13 14 14 15 15 15 16 17 18 18 19 19 20 21 22 23 24 25 26 27 28 30 32 33 34 35 35 36 37 38 39 41 42 44 45
8 7 6 5 5 4 3 3 2 2 1 2 2 3 3 3 3 4 4 4 4 4 4 5 5 5 5 5 6 6 7 8 8 9 9 10 10 11 12 12 13 13 14 14 15 16 16 17 18 19 20 21 22 22 23 24 25 27 27 28 30 31 33 34 35 35 36 36 37 38 38 39 40 42
8 7 6 6 5 4 3 3 2 2 1 1 0 0 0 1 1 1 1 2 2 2 2 3 3 3 4 4 4 5 6 6 7 8 9 9 10 10 11 12 12 13 14 14 15 16 16 17 18 19 20 21 22 23 24 25 25 26 27 27 28 30 31 33 34 36 37 38 39 39 40 40 41 41
8 7 6 6 5 4 4 3 3 2 2 2 2 2 2 1 1 1 1 1 1 2 2 3 3 4 4 4 5 5 6 6 7 8 8 9 10 10 11 12 12 13 14 14 15 16 17 17 18 19 19 20 21 22 23 24 25 25 26 27 27 29 30 32 33 35 37 38 40 41 42 44 44 45
7 6 6 5 5 4 4 4 3 3 3 2 2 2 2 2 2 2 2 2 2 2 3 3 4 4 5 5 6 6 7 7 8 8 9 9 10 11 11 12 12 13 13 14 14 15 16 16 17 18 19 20 20 21 23 23 24 25 26 27 28 29 30 32 33 35 37 38 39 41 43 44 45 46
Wind_Direction
249 249 249 248 248 248 248 248 248 247 248 248 248 248 248 248 248 248 248 248 247 247 246 246 246 244 243 243 242 241 240 239 238 238 238 237 236 235 235 235 234 234 233 233 233 234 234 234 233 232 232 232 232 232 232 232 231 230 230 230 230 229 229 229 230 230 230 231 231 231 231 231 231 231
249 249 248 248 247 247 247 247 247 247 247 247 247 247 247 247 248 248 248 247 247 247 246 245 245 245 244 243 242 241 240 238 237 237 237 237 236 235 235 235 234 234 233 233 232 233 233 234 233 232 231 231 232 231 231 231 231 230 229 229 229 228 229 230 231 231 231 231 232 232 232 232 231 232
248 248 247 247 247 246 246 246 246 246 246 246 246 246 246 246 247 247 248 247 246 246 246 245 244 244 244 243 242 241 240 239 237 237 236 236 235 235 234 234 234 233 233 233 232 232 232 233 233 232 232 231 231 231 231 231 231 231 230 230 230 229 230 231 231 231 231 232 232 232 232 232 232 233
247 247 246 246 246 245 245 245 245 245 245 245 245 246 246 246 246 247 247 247 246 245 246 246 244 244 244 244 243 242 241 239 238 236 236 235 235 234 233 233 233 233 232 232 232 232 232 232 232 232 232 231 231 231 231 231 231 231 231 231 231 231 231 231 231 231 232 232 233 233 233 233 233 234
247 246 246 245 245 245 245 245 245 245 245 245 245 245 245 245 245 246 246 246 246 245 245 245 245 244 244 244 243 242 241 239 238 236 235 235 234 234 233 233 233 232 232 232 232 231 231 232 232 231 231 231 231 231 231 231 232 232 231 231 231 231 232 232 232 232 233 233 234 234 234 234 234 234
247 247 246 245 245 244 244 244 243 244 244 244 244 244 244 245 245 245 245 245 245 245 244 244 245 244 243 243 243 242 241 239 237 236 235 234 234 234 233 232 232 231 231 231 231 231 231 231 231 231 231 231 231 231 231 231 232 232 232 232 232 232 232 233 233 234 234 234 234 235 235 235 235 235
246 245 245 244 244 243 243 243 242 242 243 243 243 244 245 245 245 244 244 244 243 244 244 243 244 243 242 243 242 241 240 238 237 235 234 233 233 233 233 232 231 231 230 230 230 230 230 230 231 231 230 230 231 231 231 231 231 232 232 232 232 232 233 233 234 234 234 235 235 236 235 235 235 235
246 245 244 243 243 243 243 242 242 242 242 242 243 244 244 244 244 244 243 243 242 244 244 243 242 242 241 242 240 239 238 237 237 236 234 232 232 232 232 232 231 230 230 229 229 229 229 229 230 230 230 230 231 231 231 231 231 231 231 232 232 232 233 233 234 234 235 236 236 236 236 236 235 235
249 247 245 244 243 242 242 241 240 240 240 241 243 243 241 241 242 242 242 242 243 244 244 242 240 240 240 240 238 237 236 236 236 235 233 232 231 231 231 231 230 230 229 229 228 228 228 229 230 230 230 230 231 231 231 231 231 231 231 232 232 232 233 233 234 234 236 236 237 236 236 236 236 236
249 247 246 245 242 241 240 240 240 240 240 241 242 241 239 240 240 241 241 241 242 242 242 241 238 237 238 238 237 236 235 235 234 233 232 231 230 230 229 229 229 229 229 229 228 228 228 228 229 230 231 230 230 231 231 231 231 231 231 232 232 232 233 234 234 235 235 236 236 236 236 236 236 236
248 247 246 243 240 238 239 239 239 240 241 241 242 241 239 238 238 240 240 240 240 240 240 239 235 234 236 237 237 236 235 234 233 232 230 230 229 229 229 228 228 228 228 228 228 228 228 228 228 229 230 230 230 230 230 230 231 232 232 232 232 233 233 234 234 234 235 236 236 236 237 237 237 237
248 247 245 242 239 238 239 240 239 240 240 241 241 239 238 237 237 239 240 240 238 237 236 235 232 232 235 235 235 235 234 233 232 231 229 229 228 228 228 228 227 227 227 227 228 228 228 228 228 228 229 229 230 230 230 230 231 232 233 233 233 233 234 234 234 234 235 235 236 236 237 237 238 238
250 249 247 242 239 239 241 241 240 239 239 240 239 237 236 237 237 239 240 238 236 234 232 230 228 229 232 234 234 233 232 232 232 230 229 228 228 227 227 227 227 226 226 226 227 228 228 228 228 228 228 229 229 230 230 230 231 232 233 233 233 233 234 234 235 235 235 235 236 236 237 237 238 238
254 253 251 245 239 239 241 241 240 239 239 239 237 235 235 235 236 237 237 235 232 231 228 227 227 228 230 232 231 230 230 231 231 229 228 227 227 226 226 226 226 226 226 226 227 227 227 228 228 228 229 229 229 229 230 231 231 232 232 233 233 233 233 234 235 235 236 236 236 237 237 238 238 238
257 257 255 248 242 240 239 238 238 237 237 237 236 235 234 234 235 236 235 231 228 226 225 224 225 227 229 229 229 228 228 229 228 228 227 226 225 226 226 226 226 226 226 226 226 227 227 227 227 228 228 229 229 229 230 231 231 232 232 233 233 233 234 234 235 235 236 237 237 237 238 238 238 239
259 262 260 252 248 244 237 235 236 236 236 236 235 234 234 233 234 234 234 231 227 225 225 225 226 227 229 229 228 227 227 226 226 225 225 224 224 225 226 226 226 225 225 225 225 225 226 227 227 227 228 228 228 229 230 230 231 231 232 233 233 234 234 235 236 236 237 237 237 238 238 239 239 239
259 263 262 254 252 248 238 235 237 238 238 237 236 234 234 233 233 233 234 233 232 230 230 229 229 229 230 229 228 227 226 224 224 224 223 223 222 223 225 225 225 224 224 224 224 224 225 226 227 227 228 228 228 228 229 230 230 231 232 233 233 234 235 236 237 237 238 238 238 238 239 239 239 239
258 261 261 257 253 253 248 241 239 240 239 239 238 237 235 234 233 233 233 234 234 234 233 233 232 231 231 230 230 228 225 224 224 223 223 223 221 221 222 223 223 223 223 223 223 224 225 225 226 227 227 228 228 228 229 229 230 231 231 232 233 234 234 235 237 237 238 239 239 239 239 239 239 240
258 260 261 260 258 258 257 250 243 241 240 239 239 239 238 236 235 235 234 234 234 234 234 234 234 234 233 232 230 229 226 225 225 224 223 222 221 220 221 221 221 222 222 222 222 223 224 224 225 225 226 227 227 227 228 229 229 230 230 231 232 233 234 235 236 237 238 238 239 240 240 240 240 240
261 261 261 261 260 259 259 256 252 248 245 242 241 240 240 239 238 237 236 235 235 235 235 235 234 234 234 233 231 230 227 226 227 226 224 222 221 221 221 221 220 221 221 221 221 222 222 222 223 224 224 225 226 227 227 228 229 230 230 231 232 233 234 235 235 236 237 238 238 239 239 240 240 240
264 263 261 261 261 260 260 259 257 254 251 248 245 244 243 242 241 240 239 238 237 237 236 236 235 234 234 233 232 231 228 227 228 227 226 224 222 222 222 222 222 221 221 221 221 221 222 222 222 223 223 224 225 226 227 228 228 229 230 231 232 233 234 235 235 236 237 238 238 238 238 239 239 239
272 269 267 265 264 263 261 260 259 256 253 250 248 247 245 244 242 242 241 240 240 239 237 236 235 235 234 234 233 231 229 228 228 229 228 227 225 223 223 223 223 222 222 222 222 222 222 222 222 223 223 224 226 227 228 228 229 229 229 230 231 232 233 234 235 235 236 237 238 238 238 238 238 238
274 272 270 269 267 266 265 263 261 257 254 252 251 249 248 246 244 242 241 240 240 239 237 235 235 234 234 233 233 231 230 229 229 229 229 228 227 226 225 224 224 224 224 224 223 223 223 222 222 223 223 225 226 227 228 229 229 229 230 230 231 232 233 234 235 235 236 236 237 237 237 237 237 237
277 275 273 272 269 267 266 264 262 259 256 255 254 252 250 248 246 244 242 240 239 238 237 235 233 232 231 231 231 230 230 229 228 229 229 228 228 227 226 226 226 226 226 225 224 225 224 223 224 224 225 226 227 227 228 229 229 230 231 231 232 232 233 234 235 235 235 236 237 237 237 237 236 236
284 281 279 277 273 270 267 265 264 262 259 257 256 254 252 249 247 245 243 241 239 237 236 234 232 230 229 228 228 228 228 228 228 228 228 228 228 228 227 227 227 227 227 226 225 225 225 225 225 226 227 228 227 227 228 229 230 230 231 232 232 233 233 234 235 235 235 235 236 237 237 237 236 237
290 286 284 282 279 276 273 270 269 267 264 261 259 256 254 251 248 246 243 242 239 236 234 232 231 229 227 226 225 225 226 226 226 227 228 228 229 229 228 227 227 227 227 226 225 225 225 226 226 227 228 228 228 228 229 230 231 231 231 232 233 233 233 234 234 235 235 236 236 236 236 237 237 237
299 295 292 288 286 284 280 277 274 272 269 266 263 259 256 253 249 246 243 241 239 236 233 231 229 228 227 225 224 223 223 224 224 225 227 227 228 228 228 228 228 228 227 226 225 225 226 226 227 227 228 229 229 229 230 230 231 232 232 233 234 234 235 235 235 236 237 237 237 237 237 237 237 238
305 301 298 296 294 292 288 283 280 278 274 271 267 264 260 255 251 246 242 240 238 236 233 230 228 227 226 225 224 224 224 224 223 224 225 226 226 226 226 226 227 227 227 226 226 227 227 227 228 229 229 230 231 231 232 232 232 233 234 235 236 236 237 237 237 238 238 238 239 239 239 238 238 238
308 304 301 301 300 298 295 290 286 283 280 276 273 270 265 258 252 245 240 237 234 232 231 229 226 225 224 223 223 223 223 222 221 221 222 223 224 224 224 225 225 225 225 225 226 227 228 228 229 230 230 231 232 233 234 234 235 235 235 236 237 238 238 238 239 239 239 240 240 240 241 241 240 240
313 309 307 306 305 304 301 297 295 293 289 286 283 277 268 259 250 243 237 233 230 228 226 225 225 223 221 220 219 218 219 219 218 218 219 220 221 221 222 223 223 224 224 224 225 227 228 228 229 230 231 233 234 234 235 235 236 236 236 237 238 239 239 239 239 240 240 240 241 242 242 242 242 243
323 319 316 314 315 314 311 309 310 310 307 304 298 287 272 258 247 238 233 229 226 224 222 221 222 220 218 216 215 213 213 214 214 215 216 217 218 219 220 220 220 222 223 223 223 225 226 227 229 230 231 232 234 234 235 235 235 235 236 237 237 238 239 239 240 240 241 241 242 242 243 243 244 244
335 331 328 328 330 330 328 327 328 328 327 326 321 307 286 264 244 232 226 224 222 219 217 216 217 217 215 214 213 211 211 210 210 211 213 214 215 216 216 217 218 219 220 221 221 222 223 225 227 229 231 231 232 233 234 235 235 235 236 237 237 239 240 240 240 241 241 241 242 242 243 244 244 245
345 342 342 343 346 345 343 343 345 345 345 346 347 345 331 291 234 216 214 215 215 214 213 211 211 213 213 212 212 211 209 208 209 210 211 211 212 213 214 215 216 216 217 218 219 220 222 224 226 228 230 232 233 234 235 236 236 237 237 237 238 239 240 241 241 241 241 241 242 243 243 244 245 245
355 355 356 356 355 355 354 354 356 358 360 3 9 18 25 34 146 189 198 202 204 206 207 207 207 209 210 211 211 210 209 208 210 212 212 211 210 210 212 213 214 214 215 217 219 220 222 224 226 228 230 232 234 236 237 237 237 238 238 238 239 240 241 242 242 243 243 243 243 243 244 245 245 245
5 7 8 7 5 4 5 6 8 10 14 19 25 34 45 58 79 125 167 184 190 194 198 201 203 205 207 209 210 210 210 210 211 212 212 212 211 210 212 213 212 213 214 217 219 221 223 224 226 228 230 233 235 237 238 238 238 239 240 240 241 242 242 243 243 243 244 245 245 245 245 246 246 247
10 12 13 13 15 16 18 20 22 25 29 35 41 48 55 64 73 89 115 144 166 178 186 191 194 199 204 207 208 210 212 213 214 214 214 213 213 212 213 214 214 214 215 218 221 222 224 225 226 228 231 234 236 239 240 239 240 241 242 242 243 244 244 245 245 245 245 246 246 247 247 248 248 248
7 10 13 16 20 24 27 29 33 37 42 48 55 61 65 69 74 84 97 113 131 152 167 177 186 194 199 203 206 209 212 214 215 215 216 216 216 217 217 218 219 219 220 222 224 226 227 229 229 231 234 237 239 241 242 242 242 243 243 243 245 246 246 246 247 247 247 248 248 248 249 249 250 250
1 4 9 15 20 27 32 36 40 46 52 57 62 66 70 75 79 86 95 103 113 127 142 155 170 182 190 196 202 205 208 211 213 215 216 217 218 219 221 222 224 225 226 227 229 230 231 233 234 236 238 241 242 244 244 245 246 246 246 246 247 248 248 249 249 250 250 250 251 251 251 251 252 252
356 358 2 7 13 20 28 36 42 47 54 61 64 66 71 76 82 88 94 100 107 117 127 136 147 159 169 179 188 195 201 206 209 213 215 217 218 220 222 223 225 227 229 230 232 234 235 237 238 240 241 243 246 247 248 249 250 251 250 250 250 251 252 252 253 253 253 253 254 254 254 254 254 254
348 351 352 355 360 5 11 23 34 42 52 59 61 63 69 74 79 85 92 99 106 115 122 129 135 144 154 163 172 181 188 193 198 202 207 211 214 217 219 222 225 227 229 231 233 235 237 239 240 242 244 246 248 250 251 252 253 254 254 253 253 254 254 255 255 256 256 256 256 256 256 256 256 256
336 337 337 336 339 345 351 360 14 31 48 56 56 57 62 68 73 80 87 95 102 110 118 125 132 140 149 157 165 172 177 181 186 191 196 201 206 210 214 218 222 225 228 231 234 237 240 242 244 246 248 249 251 253 254 255 256 256 257 257 256 256 256 257 257 258 258 258 258 258 258 258 258 258
327 324 321 317 316 320 328 334 340 356 30 54 57 59 65 72 77 82 89 97 104 111 120 127 136 145 153 160 167 173 177 183 188 193 198 202 207 212 216 221 224 228 232 236 239 242 246 248 250 252 253 254 255 256 257 258 259 260 260 260 260 259 259 259 259 259 259 259 259 259 259 260 260 260
323 319 314 308 301 298 302 307 310 309 295 283 304 78 119 119 114 112 117 125 134 142 149 155 160 165 171 178 184 188 193 197 201 205 209 213 217 221 225 229 232 236 239 242 245 247 250 252 254 256 257 258 258 260 261 262 263 263 264 263 263 262 262 262 261 261 261 261 260 260 261 261 261 261
320 316 312 306 295 287 285 288 292 290 279 266 258 254 252 252 253 254 249 227 209 204 205 207 209 209 211 213 215 217 218 220 221 223 225 228 231 234 237 240 242 245 247 249 250 252 255 257 259 259 260 261 261 262 264 265 266 266 267 267 266 266 266 265 265 264 264 263 263 263 263 262 262 262
317 313 309 301 290 280 275 274 275 275 271 266 260 258 258 259 261 262 261 253 242 234 228 226 226 227 228 228 228 228 229 231 232 234 235 237 239 242 244 246 248 250 251 252 254 256 258 259 261 261 262 263 264 265 266 268 269 269 270 270 270 270 269 269 269 268 268 267 266 266 265 264 264 263